Wind_Speed
81 82 82 83 84 85 86 87 88 89 90 90 90 90 90 90 90 90 90 91 92 94 96 98 98 95 90 87 83 80 78 76 76 75 75 75 75 75 76 76 77 78 76 75 75 78 80 82 82 81 80 80 79 78 78 77 76 75 73 72 72 73 74
82 83 84 85 86 87 88 89 90 91 92 92 91 91 91 91 91 91 91 91 92 93 94 94 94 89 81 78 76 74 72 71 71 71 71 71 70 70 70 71 72 72 72 71 72 73 76 78 80 80 79 79 79 78 77 76 75 73 72 70 70 70 71
84 84 85 86 88 89 91 92 93 94 94 94 93 93 92 92 92 92 92 92 92 91 89 89 88 81 74 72 71 69 68 68 68 69 68 68 67 67 67 67 68 68 68 68 69 70 72 73 76 77 78 78 79 78 77 75 74 72 70 69 68 67 68
85 86 87 88 90 92 93 95 95 96 95 96 96 96 95 94 94 94 93 92 90 86 82 82 81 74 69 68 68 66 66 66 66 66 66 65 65 65 65 65 65 65 65 65 66 68 69 69 72 74 76 76 77 77 76 74 72 70 69 67 66 65 65
87 88 90 92 93 95 96 97 98 98 97 98 98 99 98 97 96 95 93 90 85 79 76 76 75 70 65 66 65 64 64 64 64 65 64 63 63 63 63 64 63 63 64 64 65 65 66 66 67 70 73 74 75 76 74 72 70 69 67 65 64 64 64
89 91 93 95 97 98 99 99 100 100 100 100 100 101 100 99 97 94 91 85 78 73 71 72 72 66 62 64 63 62 62 62 62 63 62 61 61 62 63 62 61 61 62 63 63 64 65 64 63 65 68 71 73 74 72 70 69 67 64 63 63 63 64
92 94 96 98 99 100 101 101 102 102 102 102 102 102 101 99 96 91 85 78 72 69 69 69 69 63 60 61 61 60 60 60 60 61 60 60 60 61 62 61 60 60 61 61 62 63 63 62 59 60 64 67 70 71 69 68 66 64 62 61 62 62 63
96 97 99 100 101 102 103 104 104 104 105 104 103 102 100 96 91 85 79 72 67 66 66 66 66 61 58 59 59 58 58 58 58 58 58 58 59 60 61 60 59 58 59 60 61 62 62 60 56 57 60 63 65 66 66 66 64 62 61 60 60 61 61
100 101 101 102 103 104 105 105 106 106 106 105 102 99 95 90 84 78 73 68 64 63 63 64 62 58 56 58 58 57 57 56 56 56 56 56 57 59 60 59 58 57 57 58 60 61 61 58 54 54 57 59 61 63 64 63 61 60 60 59 59 59 59
102 103 104 105 105 105 106 107 107 106 104 101 97 92 86 81 76 72 68 64 61 60 60 60 58 55 54 56 57 56 55 54 54 54 54 54 56 57 58 58 58 57 56 58 60 61 59 55 52 52 55 56 59 61 62 60 59 58 58 58 58 57 56
104 105 106 107 107 107 107 107 105 102 97 92 87 82 78 73 68 66 63 60 57 57 57 56 55 53 53 55 55 54 53 52 52 52 52 53 55 56 57 58 57 57 56 57 60 61 57 53 50 51 54 55 57 59 59 58 57 57 57 57 56 55 55
106 107 108 109 109 108 106 103 98 91 86 81 77 73 70 66 62 60 58 56 54 53 53 53 52 52 52 53 52 52 51 50 50 51 51 52 53 54 56 57 56 55 56 57 60 59 55 51 50 51 53 55 57 57 57 56 55 56 56 55 54 53 53
107 108 109 108 107 104 99 93 86 81 76 72 68 65 62 60 58 56 53 52 50 49 49 50 50 50 50 50 50 50 49 49 49 49 50 51 52 53 54 54 53 53 55 57 59 58 54 51 51 51 53 56 57 56 54 54 54 55 55 53 52 52 51
107 107 105 102 99 94 88 82 76 71 67 64 60 58 57 55 54 51 48 46 46 46 46 47 47 48 48 48 48 48 47 47 47 48 49 49 50 50 51 50 50 51 54 57 58 56 53 51 51 51 54 56 56 54 53 53 54 54 53 52 51 50 49
104 101 96 92 88 84 79 72 66 62 59 57 54 52 51 50 49 47 44 42 43 43 43 44 45 46 46 46 46 46 46 46 46 47 47 47 47 47 47 47 47 49 53 56 56 54 52 50 51 52 55 56 55 53 53 53 53 52 51 51 50 48 47
96 91 87 83 79 75 69 62 57 54 53 51 49 47 46 45 44 43 40 39 40 40 40 42 44 44 44 44 44 44 44 45 45 45 45 45 45 45 44 45 46 48 52 55 56 55 53 51 52 53 55 55 54 52 53 53 51 50 50 49 48 46 46
86 82 79 74 69 64 59 54 50 49 48 46 44 42 41 41 40 39 38 37 38 38 38 40 42 42 42 42 42 42 43 44 43 43 42 42 43 43 43 45 47 49 51 55 57 57 54 53 53 54 54 54 53 52 52 51 49 49 49 47 47 46 46
78 73 69 65 61 57 53 48 45 44 43 41 39 37 37 37 37 36 35 35 35 35 37 38 40 41 41 41 41 42 43 43 42 41 40 40 41 43 43 45 49 50 51 54 57 56 53 52 52 53 53 53 52 51 50 49 48 48 47 46 46 46 46
70 64 60 58 55 52 48 43 39 38 38 36 34 33 33 33 33 33 32 32 33 34 35 36 37 39 39 40 40 41 42 42 41 40 39 39 40 42 43 46 50 51 52 54 55 53 52 51 51 52 52 52 51 50 48 47 48 47 46 46 47 46 45
62 58 55 53 50 46 43 38 34 32 32 31 29 29 30 30 30 30 30 30 31 32 33 34 35 37 38 39 40 41 42 42 40 39 39 39 40 42 44 47 51 52 51 51 52 50 50 50 50 50 51 51 50 48 46 46 47 46 46 47 46 46 44
58 54 50 47 43 40 36 32 28 27 27 26 26 26 27 27 27 28 28 28 29 30 31 32 33 35 38 40 41 41 41 41 41 40 40 40 41 44 48 49 50 50 49 49 50 49 48 49 50 50 50 50 48 46 45 45 46 46 46 46 46 45 44
53 49 44 40 37 34 30 26 23 22 23 23 23 24 26 25 25 25 26 26 27 28 29 31 33 35 39 41 41 41 42 42 41 41 41 40 41 46 49 49 48 48 48 48 50 49 48 48 49 49 50 49 47 45 45 45 46 46 46 46 46 44 43
48 42 37 33 31 28 24 21 19 19 20 21 21 23 24 23 23 24 24 25 26 27 29 31 34 37 39 40 41 41 42 43 42 42 41 40 41 45 49 49 48 48 47 48 49 48 47 47 48 49 49 47 46 45 45 46 46 46 47 47 45 44 43
41 36 31 28 26 23 19 17 16 17 18 19 20 21 21 21 22 22 23 23 24 27 30 32 34 36 38 39 40 42 43 43 42 42 42 41 41 43 47 48 47 46 47 47 48 47 46 46 47 47 47 46 46 46 46 46 46 46 47 46 44 44 43
34 29 26 23 21 18 15 14 14 15 16 18 19 20 21 21 22 22 22 23 25 28 30 31 32 34 36 38 40 41 41 41 40 41 44 44 41 41 44 45 45 45 46 46 46 46 45 45 45 46 47 47 47 46 46 45 45 45 45 44 43 43 42
29 24 21 18 16 14 13 12 13 14 15 17 19 19 21 22 22 22 24 26 27 27 26 27 28 30 33 36 37 38 37 37 38 41 45 45 42 40 42 43 42 43 44 44 44 45 44 44 45 46 47 47 45 45 44 44 44 45 45 44 44 43 42
25 20 16 14 12 11 11 11 12 14 15 17 18 19 20 21 21 23 26 27 26 25 24 25 26 28 30 32 34 34 34 36 38 41 44 45 43 40 40 40 40 40 41 42 43 44 44 44 45 46 46 45 44 43 43 43 43 44 44 44 43 43 42
21 17 12 11 10 9 10 11 12 14 15 16 17 17 18 19 21 23 26 27 26 25 26 27 28 29 30 31 31 32 34 35 37 40 43 45 43 40 39 39 39 39 39 41 42 43 44 44 44 44 44 43 43 42 42 42 42 43 44 43 42 42 41
17 14 10 9 9 9 10 12 13 14 14 15 15 16 16 17 19 22 24 25 25 26 27 29 30 30 30 30 31 32 34 35 36 39 42 44 43 40 39 38 39 38 39 40 42 43 43 43 43 43 43 42 41 41 41 41 42 43 44 43 42 42 41
13 12 9 8 9 10 11 12 12 13 13 13 14 14 14 16 18 20 22 23 25 26 27 28 29 29 29 30 31 32 33 34 36 38 42 44 43 40 38 38 38 39 39 40 41 42 42 42 42 41 41 41 41 41 41 41 43 44 44 43 42 42 42
10 10 8 8 9 10 11 12 11 11 12 12 12 13 14 16 18 19 21 23 24 25 26 27 28 30 30 31 31 32 32 34 36 38 40 42 41 40 38 37 38 39 39 39 40 40 41 41 41 41 40 40 40 41 41 42 43 44 44 43 42 42 43
9 8 8 9 10 11 11 11 10 10 11 12 12 13 15 16 18 19 19 20 20 22 24 26 27 29 29 29 29 30 32 34 36 38 39 39 39 38 38 37 37 37 38 38 39 39 40 40 40 40 40 40 40 41 41 42 43 43 43 43 42 42 42
9 8 8 9 10 10 11 10 10 11 12 13 14 15 16 17 18 18 17 18 19 21 22 24 25 26 26 27 28 29 31 33 35 36 37 37 37 36 36 35 35 36 36 37 38 39 39 40 39 39 40 40 40 41 41 41 42 42 42 42 42 42 42
8 8 8 9 10 10 11 11 11 12 13 14 15 16 17 17 18 17 17 18 20 20 21 22 24 25 25 26 28 29 31 33 35 36 36 36 36 35 34 34 34 35 36 37 38 39 39 39 39 39 40 40 40 40 40 40 41 41 42 42 42 42 42
8 8 8 8 9 10 11 11 12 12 14 15 16 17 18 18 18 18 18 19 20 20 21 22 24 24 26 27 29 30 32 34 34 35 35 35 34 34 33 34 34 35 36 37 38 38 39 39 40 40 40 40 39 39 39 40 40 41 41 42 42 42 42
7 8 8 8 9 10 11 12 13 14 15 16 17 18 18 19 19 19 20 20 21 21 21 22 24 25 26 28 29 31 32 32 33 33 34 34 33 33 33 34 35 35 36 37 37 38 39 39 40 40 40 39 39 39 39 39 40 40 41 41 41 41 41
Wind_Direction
288 288 288 288 289 290 290 291 291 291 290 289 288 287 287 286 286 285 285 285 286 287 287 285 283 282 278 272 268 266 263 261 260 259 258 257 255 255 254 253 253 251 248 246 245 245 244 244 242 241 239 238 237 237 236 236 237 239 240 241 242 242 243
288 288 289 289 290 291 291 292 292 292 291 290 289 288 288 287 287 287 287 287 288 287 286 283 280 278 273 268 265 263 261 259 257 256 256 255 254 253 253 252 251 250 247 244 243 242 241 241 241 239 237 236 235 235 235 235 236 238 239 240 241 242 243
289 289 290 291 291 292 292 292 292 292 292 291 291 290 289 289 289 289 289 289 289 287 283 278 276 274 269 265 262 260 258 257 255 254 254 253 253 252 252 251 250 249 246 243 241 239 238 238 238 237 235 234 233 233 234 234 236 237 238 240 241 241 242
289 290 291 292 292 293 293 293 293 293 292 292 292 291 291 290 290 290 290 289 287 283 278 273 272 270 265 262 260 258 256 255 253 253 252 251 251 250 250 250 249 248 246 243 240 236 235 235 236 235 234 233 232 232 233 233 235 236 238 239 240 240 240
290 291 292 293 294 294 294 294 294 293 293 293 292 292 292 291 291 291 290 288 284 278 272 269 268 266 262 259 257 256 254 253 252 251 250 250 249 249 249 249 248 247 245 242 239 235 232 232 234 234 233 232 231 231 231 232 234 236 237 238 239 239 240
291 292 293 294 294 295 295 294 294 294 293 293 292 292 292 291 291 290 288 284 279 273 268 267 266 263 259 256 255 254 252 251 250 249 248 248 247 247 248 248 248 246 244 242 238 233 229 229 232 233 232 231 230 230 230 231 233 235 236 236 237 238 239
292 293 294 295 295 295 295 294 294 294 293 293 292 292 291 290 289 287 284 279 273 268 266 264 263 260 256 254 253 252 250 249 248 247 247 246 246 246 247 247 247 246 244 241 237 231 227 226 230 232 231 230 230 229 229 230 232 233 234 235 236 237 238
294 294 294 295 295 295 295 294 294 294 293 292 292 291 290 288 286 283 279 274 269 266 264 261 260 257 253 252 251 250 248 247 246 245 245 244 244 245 246 247 247 246 244 240 235 229 225 224 228 231 230 229 229 228 228 229 230 231 233 234 235 237 238
295 295 295 295 295 295 294 294 294 293 293 292 291 289 287 285 282 278 274 270 266 263 261 258 256 254 251 250 249 248 247 245 244 243 243 243 243 245 246 247 247 245 243 239 232 226 223 223 226 229 228 228 227 227 227 228 228 230 232 233 234 236 237
296 296 296 295 295 294 294 294 294 293 292 291 289 287 284 281 277 273 270 266 263 260 257 254 253 251 248 247 247 246 245 244 242 242 242 242 243 245 246 247 246 244 241 236 228 222 221 221 224 227 227 226 226 225 226 226 226 228 230 232 233 235 235
297 296 296 296 295 295 295 294 294 292 291 289 286 284 280 277 273 270 266 263 260 257 253 251 250 247 245 245 245 245 243 242 240 240 241 241 243 245 246 247 246 243 238 232 224 219 219 219 221 224 225 225 224 224 224 224 225 226 229 231 233 234 234
297 297 297 296 296 296 295 294 293 291 289 286 283 280 277 274 270 266 262 259 257 253 249 248 246 244 243 244 243 242 241 240 239 239 240 241 243 245 247 248 245 239 232 226 219 216 217 218 219 222 224 224 223 223 222 222 223 225 227 230 232 233 233
298 298 297 297 297 296 295 294 291 289 287 284 280 277 274 270 267 262 258 257 254 249 245 245 244 241 241 241 241 240 239 238 238 239 240 241 243 246 249 247 240 231 224 219 215 214 215 217 219 221 224 224 223 221 220 221 223 225 227 229 231 232 232
299 299 298 298 297 296 294 292 290 287 284 281 278 274 270 266 263 259 257 254 250 245 243 243 242 240 239 239 238 238 237 236 237 238 239 241 245 247 247 241 231 223 217 214 213 213 214 217 219 221 223 224 221 218 219 221 224 225 226 228 230 231 231
300 300 299 298 296 295 293 291 289 285 282 278 275 271 267 263 260 257 254 249 244 242 241 240 239 239 237 236 236 235 235 235 235 236 239 242 245 244 239 231 223 217 214 214 213 212 214 217 219 220 223 223 218 216 218 222 224 225 226 228 229 229 230
301 300 299 297 295 294 292 290 287 283 279 276 272 267 263 259 256 254 250 244 241 240 238 236 236 236 235 234 233 233 234 234 234 236 239 241 241 237 231 223 218 216 215 214 213 212 214 218 219 220 222 221 217 216 219 222 223 224 225 227 228 228 229
302 300 299 297 295 293 291 289 285 281 276 273 269 264 259 255 252 249 244 241 240 238 234 233 233 233 233 231 230 231 232 231 232 235 237 237 235 231 225 220 218 217 216 214 212 212 214 216 218 219 220 219 216 216 219 221 222 224 225 226 227 228 229
302 300 298 297 295 293 291 288 283 277 273 270 265 260 254 250 247 243 241 240 238 234 231 229 229 230 230 229 229 229 229 229 231 233 233 232 230 228 224 218 216 216 215 212 211 212 214 216 217 217 217 217 215 215 217 219 222 224 224 225 226 227 228
302 300 298 297 295 293 291 286 280 274 269 265 261 254 249 245 241 240 239 237 233 230 228 227 226 227 228 227 227 226 226 228 230 229 228 228 228 226 222 218 216 215 213 210 210 212 214 216 217 216 216 215 214 214 216 218 221 223 223 224 226 226 227
301 301 300 298 295 293 289 285 279 272 265 260 255 248 243 239 238 237 236 232 229 227 225 224 224 225 227 226 224 223 225 228 228 225 224 226 225 222 220 218 216 212 209 208 210 212 214 215 216 216 215 214 214 214 215 218 221 222 223 224 225 226 226
302 303 301 298 295 291 288 283 276 267 260 253 246 240 237 236 234 232 230 227 226 224 222 223 224 225 226 223 220 222 225 226 225 221 221 224 223 219 219 218 213 209 207 208 211 214 215 215 215 214 214 214 214 214 216 219 220 221 222 224 224 224 225
304 304 302 298 293 289 286 280 270 260 251 243 237 234 234 232 229 227 224 222 222 222 223 225 225 224 222 220 220 223 225 224 222 219 218 222 222 219 218 216 211 208 209 212 215 216 217 216 214 213 213 213 213 214 215 218 219 220 221 223 223 223 223
306 305 302 297 292 288 283 274 262 249 240 235 231 230 230 227 223 222 221 221 223 225 226 226 225 223 221 221 222 224 223 221 220 217 216 220 222 219 216 213 210 210 212 215 216 217 216 215 213 212 212 212 213 215 217 218 218 219 220 221 221 221 222
307 304 301 296 290 285 276 263 250 238 230 228 227 225 224 222 219 219 220 221 224 225 225 225 225 223 223 223 223 222 220 219 218 215 215 218 220 217 212 209 209 212 214 215 216 216 215 213 212 211 212 213 214 217 218 218 218 218 219 219 219 220 221
307 304 300 294 287 279 266 250 237 228 223 221 219 218 218 218 219 220 218 217 217 218 220 223 225 225 224 223 221 217 216 216 216 214 215 218 219 215 209 208 210 213 215 215 215 215 213 212 210 211 213 214 215 217 217 217 217 218 219 219 219 220 221
308 305 299 291 281 269 254 239 227 220 216 214 213 214 217 218 218 217 213 209 209 213 217 222 225 224 221 217 214 212 212 215 216 214 215 217 218 214 209 209 211 213 214 214 214 213 211 210 210 211 213 214 215 216 217 217 218 218 218 218 218 219 219
307 305 296 284 273 258 242 228 219 213 210 210 212 215 217 218 217 213 208 205 207 211 215 218 218 216 213 210 209 210 212 215 216 214 214 216 216 213 209 209 211 213 214 213 213 211 210 209 210 211 212 213 213 215 216 217 217 218 218 218 217 218 218
303 301 289 271 257 242 229 218 212 210 210 212 215 217 218 219 216 210 206 206 209 213 214 215 213 211 209 209 211 212 214 216 217 214 213 214 214 212 209 209 211 214 214 212 210 209 209 209 210 210 211 212 213 214 215 216 216 218 218 218 218 218 218
295 293 280 258 241 224 217 213 208 208 212 216 219 220 221 219 214 209 208 211 216 219 219 217 214 211 210 211 213 213 215 217 216 213 211 212 212 211 210 211 211 211 211 210 209 208 208 209 209 210 211 212 213 214 214 214 215 216 217 217 217 217 218
291 283 269 249 232 215 208 208 208 212 217 221 221 219 216 214 211 209 213 220 225 226 224 220 216 213 211 212 214 215 216 216 213 211 209 209 210 210 211 212 211 209 208 208 208 208 209 209 209 210 211 212 212 212 212 213 214 215 216 216 216 216 216
288 273 258 241 226 214 207 207 211 217 221 221 218 212 207 207 209 213 221 228 229 225 219 215 213 212 211 213 215 217 215 211 207 206 205 206 208 209 209 209 209 207 206 206 207 208 209 209 210 210 211 212 212 211 211 212 213 214 216 216 216 216 216
280 262 248 234 222 213 211 211 215 221 222 217 209 203 200 204 211 217 222 225 220 212 207 207 208 208 208 209 210 209 207 204 201 201 202 203 205 206 206 206 206 206 205 205 206 207 208 209 210 211 211 211 211 210 211 211 212 214 216 217 216 216 217
269 250 237 228 219 214 215 216 215 219 220 212 203 198 198 204 211 214 214 212 206 201 199 201 202 202 201 201 200 199 199 199 199 200 200 201 202 203 203 204 204 204 204 204 205 206 207 209 209 210 210 211 210 210 210 211 212 214 216 217 217 217 217
258 240 228 223 220 217 219 219 215 213 214 208 200 197 198 203 207 208 206 204 202 199 197 197 198 198 196 194 194 195 196 197 198 199 200 200 200 200 200 201 201 201 202 203 204 205 207 208 208 209 210 210 210 209 210 211 212 214 216 217 218 218 218
250 231 221 221 222 220 219 220 214 209 207 205 200 198 199 201 202 202 203 203 201 198 196 197 197 197 195 192 193 194 195 197 197 198 199 199 198 198 197 198 199 200 201 203 204 205 206 207 208 209 209 209 209 209 209 210 212 213 215 217 219 219 218
243 227 217 219 224 221 216 214 210 204 202 204 204 201 201 201 200 199 201 201 199 196 195 195 196 196 194 193 194 194 196 197 198 198 198 198 198 197 196 197 199 200 201 202 203 204 206 207 208 208 209 208 208 208 209 210 212 213 215 217 219 219 219
Height
5372 5368 5365 5362 5359 5355 5351 5347 5344 5341 5337 5333 5332 5329 5326 5324 5321 5317 5314 5312 5308 5304 5297 5290 5288 5292 5291 5286 5283 5283 5284 5285 5286 5286 5288 5290 5293 5295 5299 5302 5303 5311 5323 5326 5325 5326 5328 5332 5337 5344 5351 5355 5360 5366 5371 5376 5379 5382 5385 5388 5391 5394 5397
5358 5355 5350 5347 5344 5340 5336 5332 5329 5325 5321 5317 5315 5312 5310 5307 5304 5300 5297 5295 5292 5288 5281 5273 5270 5274 5274 5270 5268 5270 5271 5273 5274 5274 5276 5278 5281 5284 5287 5290 5292 5298 5306 5312 5314 5314 5316 5319 5324 5332 5338 5343 5349 5355 5360 5365 5369 5371 5374 5377 5380 5384 5387
5343 5340 5336 5333 5329 5325 5321 5317 5313 5309 5304 5300 5297 5294 5292 5290 5286 5282 5280 5277 5274 5270 5264 5257 5255 5258 5260 5256 5255 5258 5259 5261 5262 5263 5265 5267 5269 5273 5276 5278 5281 5285 5292 5299 5302 5303 5305 5308 5312 5319 5326 5331 5337 5344 5349 5354 5358 5361 5364 5367 5370 5374 5377
5329 5325 5322 5319 5315 5310 5306 5301 5297 5293 5288 5283 5279 5275 5273 5271 5268 5264 5261 5259 5255 5252 5247 5241 5241 5245 5246 5243 5243 5247 5248 5250 5251 5252 5254 5257 5259 5262 5266 5268 5270 5274 5280 5285 5290 5293 5296 5299 5302 5307 5314 5319 5326 5332 5338 5344 5347 5350 5354 5357 5361 5365 5367
5316 5311 5307 5303 5298 5294 5289 5285 5279 5275 5271 5267 5261 5256 5254 5252 5250 5246 5243 5240 5237 5234 5231 5227 5228 5231 5233 5231 5232 5236 5238 5239 5240 5241 5243 5246 5249 5252 5255 5257 5260 5264 5268 5272 5278 5283 5286 5289 5292 5297 5303 5309 5315 5322 5328 5333 5337 5340 5344 5348 5351 5354 5357
5302 5297 5292 5288 5283 5277 5272 5267 5262 5257 5253 5249 5244 5239 5235 5232 5231 5228 5225 5222 5220 5218 5216 5214 5215 5218 5220 5219 5221 5225 5227 5228 5229 5231 5233 5237 5239 5242 5244 5247 5250 5254 5257 5262 5268 5273 5276 5280 5284 5288 5293 5298 5305 5311 5318 5323 5327 5330 5335 5339 5342 5345 5348
5288 5283 5277 5271 5266 5261 5254 5249 5245 5240 5235 5231 5226 5220 5216 5213 5211 5210 5208 5206 5205 5203 5202 5201 5202 5206 5208 5209 5211 5214 5216 5218 5219 5221 5224 5227 5230 5232 5234 5237 5241 5244 5247 5252 5258 5263 5268 5272 5275 5279 5284 5289 5295 5303 5309 5313 5317 5322 5326 5329 5333 5336 5339
5272 5268 5262 5256 5249 5244 5237 5231 5226 5221 5215 5211 5207 5202 5197 5194 5192 5191 5190 5190 5190 5189 5189 5189 5191 5194 5197 5198 5200 5203 5205 5207 5209 5212 5215 5218 5220 5222 5224 5228 5232 5235 5238 5243 5248 5254 5260 5263 5266 5271 5276 5280 5287 5295 5299 5302 5309 5314 5317 5320 5324 5327 5331
5254 5248 5244 5239 5233 5226 5219 5214 5208 5202 5195 5190 5187 5183 5179 5176 5174 5173 5173 5175 5176 5176 5176 5177 5179 5183 5186 5188 5190 5192 5194 5197 5200 5202 5206 5209 5211 5213 5216 5219 5223 5226 5230 5234 5240 5246 5251 5255 5259 5264 5268 5273 5279 5285 5288 5294 5301 5305 5307 5312 5316 5319 5323
5236 5230 5223 5219 5215 5209 5202 5195 5189 5182 5175 5170 5165 5163 5161 5159 5158 5157 5158 5160 5162 5163 5164 5166 5169 5173 5175 5177 5179 5182 5185 5188 5191 5193 5197 5200 5202 5204 5207 5210 5214 5218 5222 5226 5231 5238 5243 5247 5252 5257 5261 5266 5270 5275 5280 5287 5293 5296 5299 5304 5308 5311 5315
5218 5212 5204 5197 5194 5190 5183 5176 5169 5162 5156 5151 5146 5143 5142 5142 5143 5143 5144 5146 5148 5151 5153 5156 5159 5162 5164 5167 5169 5173 5176 5179 5182 5184 5188 5191 5193 5196 5198 5201 5205 5209 5213 5218 5224 5230 5235 5240 5246 5250 5253 5257 5261 5267 5273 5279 5284 5288 5292 5296 5300 5303 5307
5199 5193 5185 5177 5172 5168 5162 5156 5149 5143 5138 5134 5130 5127 5125 5126 5128 5129 5131 5133 5136 5140 5142 5145 5149 5152 5155 5157 5160 5163 5166 5170 5173 5176 5179 5182 5185 5187 5190 5192 5196 5200 5204 5210 5216 5223 5229 5234 5238 5242 5246 5250 5254 5259 5265 5272 5277 5281 5284 5289 5293 5296 5299
5181 5173 5165 5156 5150 5146 5141 5136 5130 5125 5121 5118 5116 5114 5112 5112 5114 5116 5119 5123 5126 5130 5133 5136 5139 5142 5146 5149 5152 5154 5158 5161 5165 5168 5170 5173 5176 5179 5181 5183 5186 5190 5196 5202 5209 5216 5222 5227 5231 5235 5239 5242 5246 5252 5259 5265 5270 5273 5277 5282 5285 5288 5292
5162 5154 5146 5136 5129 5125 5122 5118 5113 5110 5106 5104 5103 5102 5100 5100 5102 5105 5109 5113 5117 5120 5124 5127 5130 5134 5137 5140 5143 5146 5150 5154 5157 5160 5163 5165 5168 5171 5173 5175 5178 5183 5189 5196 5203 5210 5216 5220 5224 5228 5231 5234 5239 5246 5253 5258 5262 5266 5270 5274 5277 5281 5286
5141 5134 5128 5119 5111 5107 5105 5102 5098 5096 5093 5091 5091 5090 5089 5090 5093 5096 5101 5105 5108 5112 5116 5119 5122 5125 5129 5132 5136 5139 5143 5146 5149 5152 5155 5158 5161 5163 5166 5169 5173 5179 5185 5191 5198 5204 5209 5213 5216 5220 5223 5227 5233 5240 5246 5250 5255 5259 5264 5267 5270 5275 5280
5122 5114 5108 5103 5096 5091 5090 5088 5085 5083 5081 5080 5079 5079 5080 5082 5085 5089 5093 5096 5099 5104 5108 5111 5115 5118 5121 5125 5129 5133 5136 5139 5142 5146 5149 5152 5154 5157 5160 5164 5169 5174 5180 5186 5192 5198 5202 5205 5208 5212 5216 5221 5228 5234 5239 5243 5249 5253 5257 5260 5264 5269 5273
5106 5097 5091 5087 5082 5078 5077 5077 5074 5072 5070 5069 5070 5071 5072 5075 5078 5082 5086 5089 5092 5097 5101 5104 5108 5111 5115 5119 5123 5126 5129 5132 5136 5139 5142 5145 5148 5151 5155 5160 5165 5169 5174 5179 5184 5189 5194 5197 5200 5205 5210 5215 5222 5227 5232 5239 5244 5247 5250 5254 5259 5263 5266
5091 5085 5078 5073 5070 5067 5066 5066 5064 5062 5061 5061 5062 5063 5065 5068 5072 5075 5079 5083 5087 5091 5095 5098 5102 5105 5109 5113 5117 5120 5122 5125 5129 5133 5136 5140 5143 5146 5151 5155 5159 5163 5167 5172 5178 5183 5187 5191 5195 5199 5204 5210 5216 5221 5228 5234 5238 5240 5244 5249 5253 5256 5260
5077 5073 5068 5063 5060 5057 5056 5056 5055 5054 5053 5054 5055 5057 5060 5063 5067 5070 5074 5077 5081 5085 5089 5093 5096 5100 5103 5107 5111 5114 5117 5120 5124 5128 5131 5134 5138 5142 5147 5150 5153 5157 5161 5166 5172 5178 5182 5186 5190 5195 5200 5206 5211 5217 5223 5228 5231 5235 5239 5243 5246 5250 5254
5065 5063 5060 5055 5052 5049 5048 5048 5048 5048 5048 5049 5050 5053 5055 5059 5062 5066 5069 5073 5076 5080 5084 5088 5091 5095 5098 5101 5105 5108 5111 5114 5118 5123 5126 5130 5134 5138 5142 5143 5146 5151 5156 5162 5168 5173 5178 5182 5186 5191 5196 5202 5207 5213 5219 5223 5226 5230 5233 5236 5240 5244 5248
5056 5054 5052 5047 5044 5042 5041 5041 5042 5042 5043 5044 5047 5049 5052 5055 5059 5062 5065 5068 5072 5076 5080 5083 5086 5089 5092 5095 5099 5102 5106 5109 5114 5118 5122 5126 5130 5133 5134 5137 5142 5147 5153 5158 5164 5169 5173 5178 5182 5187 5192 5197 5203 5208 5214 5217 5220 5224 5227 5231 5235 5239 5243
5049 5047 5044 5041 5038 5037 5036 5036 5037 5038 5040 5041 5044 5046 5049 5052 5055 5058 5061 5065 5068 5072 5075 5078 5081 5083 5086 5090 5094 5097 5101 5105 5109 5113 5118 5122 5124 5126 5129 5134 5140 5145 5149 5155 5159 5164 5170 5175 5179 5184 5188 5193 5198 5203 5208 5211 5215 5218 5221 5225 5229 5233 5238
5043 5040 5038 5035 5033 5033 5033 5033 5034 5035 5037 5039 5041 5044 5046 5049 5052 5055 5058 5062 5065 5068 5070 5073 5075 5078 5081 5085 5089 5093 5096 5100 5104 5109 5114 5117 5119 5121 5126 5131 5136 5141 5146 5151 5155 5161 5166 5171 5175 5180 5184 5189 5194 5198 5202 5205 5209 5212 5215 5219 5224 5228 5232
5038 5035 5033 5031 5030 5029 5029 5030 5031 5033 5035 5037 5039 5041 5044 5047 5050 5053 5056 5059 5062 5063 5065 5067 5070 5073 5077 5081 5084 5088 5092 5096 5101 5106 5110 5112 5115 5118 5123 5128 5133 5138 5142 5147 5152 5157 5162 5167 5172 5176 5180 5185 5189 5192 5195 5199 5203 5207 5210 5214 5219 5224 5228
5033 5031 5029 5028 5027 5027 5027 5028 5029 5031 5033 5035 5037 5039 5041 5044 5047 5050 5052 5054 5055 5057 5060 5063 5066 5070 5073 5077 5080 5084 5089 5093 5098 5103 5106 5108 5112 5116 5120 5126 5130 5134 5139 5144 5149 5153 5158 5163 5168 5171 5174 5178 5182 5186 5190 5195 5199 5202 5206 5211 5216 5220 5224
5029 5027 5026 5025 5025 5025 5025 5026 5028 5030 5031 5033 5035 5037 5039 5042 5044 5047 5048 5050 5052 5054 5058 5061 5064 5067 5070 5073 5078 5082 5087 5091 5095 5099 5101 5105 5109 5114 5119 5124 5128 5131 5136 5141 5145 5150 5154 5159 5162 5165 5169 5173 5178 5183 5187 5191 5195 5198 5202 5207 5211 5215 5219
5025 5024 5023 5023 5023 5023 5024 5025 5027 5028 5030 5032 5034 5036 5038 5040 5042 5044 5046 5048 5050 5053 5056 5059 5061 5064 5068 5072 5076 5081 5085 5088 5091 5094 5098 5102 5107 5111 5116 5121 5125 5128 5133 5137 5141 5145 5149 5153 5156 5160 5165 5170 5175 5179 5183 5187 5191 5194 5198 5202 5207 5210 5215
5022 5022 5021 5020 5021 5021 5022 5024 5025 5027 5029 5030 5032 5034 5036 5038 5040 5042 5044 5047 5049 5052 5054 5056 5059 5062 5066 5070 5074 5078 5082 5085 5088 5091 5095 5099 5104 5109 5113 5117 5121 5125 5129 5133 5137 5141 5144 5148 5153 5157 5162 5167 5171 5175 5179 5183 5186 5190 5194 5198 5203 5207 5211
5020 5020 5019 5019 5019 5020 5021 5022 5024 5025 5027 5029 5031 5033 5034 5036 5039 5041 5043 5046 5048 5050 5052 5054 5057 5060 5064 5068 5072 5075 5078 5082 5085 5088 5092 5096 5101 5106 5110 5114 5118 5122 5126 5130 5134 5137 5141 5145 5150 5154 5158 5163 5167 5171 5175 5179 5182 5185 5189 5194 5198 5202 5206
5019 5018 5018 5018 5018 5019 5020 5021 5023 5025 5026 5028 5030 5031 5033 5035 5037 5040 5042 5044 5045 5047 5049 5052 5055 5059 5062 5066 5069 5072 5075 5079 5082 5085 5089 5094 5098 5103 5107 5111 5115 5119 5122 5126 5130 5134 5138 5142 5146 5151 5155 5159 5163 5167 5170 5174 5178 5181 5185 5189 5194 5198 5202
5018 5017 5017 5017 5018 5019 5019 5021 5022 5024 5025 5027 5028 5030 5032 5034 5036 5038 5040 5041 5042 5044 5047 5050 5053 5056 5059 5063 5066 5069 5072 5075 5079 5082 5087 5091 5096 5100 5104 5108 5112 5116 5119 5123 5127 5131 5135 5139 5143 5147 5151 5155 5159 5163 5166 5170 5173 5177 5181 5185 5190 5194 5198
5016 5016 5016 5016 5017 5018 5019 5021 5022 5023 5024 5026 5027 5029 5031 5033 5035 5036 5037 5038 5039 5042 5045 5048 5051 5054 5057 5060 5063 5066 5069 5072 5076 5080 5084 5089 5093 5097 5101 5105 5109 5112 5116 5120 5124 5127 5131 5135 5139 5143 5147 5151 5155 5159 5162 5166 5170 5173 5177 5181 5185 5190 5194
5015 5015 5015 5015 5016 5017 5019 5020 5021 5022 5023 5025 5026 5028 5029 5031 5033 5035 5035 5036 5038 5040 5043 5046 5049 5052 5055 5058 5061 5064 5068 5071 5074 5078 5082 5086 5090 5094 5098 5102 5105 5109 5113 5117 5120 5124 5128 5132 5136 5139 5143 5147 5151 5155 5159 5162 5166 5170 5173 5177 5181 5186 5190
5013 5013 5014 5014 5016 5017 5018 5018 5019 5021 5023 5024 5025 5027 5029 5030 5032 5034 5035 5036 5037 5040 5043 5045 5048 5050 5053 5056 5060 5063 5066 5069 5073 5076 5080 5083 5087 5091 5095 5099 5102 5106 5110 5113 5117 5120 5124 5128 5132 5136 5139 5143 5148 5152 5155 5159 5163 5166 5170 5174 5177 5181 5185
5012 5012 5012 5013 5015 5016 5017 5018 5019 5020 5022 5024 5025 5026 5028 5029 5031 5033 5034 5036 5038 5040 5042 5045 5047 5050 5053 5056 5059 5062 5065 5068 5071 5074 5078 5081 5085 5088 5092 5096 5099 5103 5106 5110 5114 5118 5121 5125 5128 5132 5136 5140 5144 5148 5152 5156 5159 5163 5166 5170 5173 5177 5181
5010 5011 5011 5012 5013 5014 5015 5016 5018 5019 5021 5023 5025 5026 5027 5029 5030 5032 5034 5035 5037 5039 5041 5044 5046 5049 5052 5055 5057 5060 5063 5067 5070 5073 5076 5079 5083 5086 5090 5093 5096 5100 5103 5107 5111 5115 5118 5122 5125 5129 5133 5138 5142 5145 5149 5153 5156 5160 5163 5166 5170 5173 5177